sat.trackr.live / text

‹ back to catalog

HULIANWANG DIGUI-53

NORAD 65110 · 2025-168E

PAYLOAD ACTIVE UNKNOWN

§ Identity

Operator
Country
PRC
Launch date
2025-08-04
Launch site
WSC
Launch vehicle
Mass (kg)
RCS (m²)

External: N2YO · Heavens-Above · Gunter

§ Orbital elements

Epoch: 2026-09-21T17:35:54.879648Z

Period
108.33 min
Inclination
50.0059°
Eccentricity
0.0008237
Mean motion
13.29324632 rev/d
Perigee alt
1,143.1 km
Apogee alt
1,155.5 km
Semi-major
7,527.4 km
B*
7.5506e-5
RAAN
339.4263°
Arg perigee
18.8609°
Mean anomaly
341.2567°
Rev number
5,553

§ Raw data

HULIANWANG DIGUI-531 65110U 25168E   26264.73327407 -.00000089  00000+0  75506-4 0  99922 65110  50.0059 339.4263 0008237  18.8609 341.2567 13.29324632 55537

JSON: /api/v1/satellites/65110 · /tle

For live sub-satellite position, see the globe view (requires WebGL).

§ Visibility from observer

Set your observer location to see the next 7 days of passes ≥ 10°. The values pass through the URL so the page stays shareable.

No JS? Fill the form by hand. The geolocation button needs JavaScript.